La Crosse, WI

2:39 PM CST on November 19, 2017 (GMT -0600)
La Crosse Municipal

Weather History for KLSE - August, 2012

Change the Weather History Date:

Thursday, August 30, 2012

  Actual Average Record
Temperature  
Mean Temperature 85 °F 69 °F  
Max Temperature 97 °F 79 °F 97 °F (2012)
Min Temperature 73 °F 59 °F 35 °F (1915)
Degree Days  
Heating Degree Days 0 1  
Month to date heating degree days 9 10  
Since 1 June heating degree days 26  
Since 1 July heating degree days 9 15  
Cooling Degree Days 20 5  
Month to date cooling degree days 192 209  
Year to date cooling degree days 1010 696  
Since 1 June cooling degree days 902  
Growing Degree Days 34 (Base 50)    
Moisture  
Dew Point 62 °F    
Average Humidity 51    
Maximum Humidity 73    
Minimum Humidity 29    
Precipitation  
Precipitation 0.00 in 0.13 in 2.56 in (1962)
Month to date precipitation 2.17 4.15  
Year to date precipitation 18.99 23.82  
Snow  
Snow 0.00 in 0.00 in 0.00 in (2002)
Month to date snowfall 0.0 0.0  
Since 1 June snowfall 0.0  
Since 1 July snowfall 0.0 0.0  
Snow Depth 0.00 in    
Sea Level Pressure  
Sea Level Pressure 29.82 in    
Wind  
Wind Speed 15 mph (South)    
Max Wind Speed 25 mph    
Max Gust Speed 35 mph    
Visibility 10 miles    
Events      
T = Trace of Precipitation, MM = Missing Value Source: NWS Daily Summary

Daily Weather History Graph

Daily Weather History Graph

Search for Another Location

Airport or City:

Trip Planner

Search our weather history database for the weather conditions in past years. The results will help you decide how hot, cold, wet, or windy it might be!

Date:

Astronomy

Aug. 30, 2012 Rise Set
Actual Time 6:26 AM CDT 7:43 PM CDT
Civil Twilight 5:56 AM CDT 8:13 PM CDT
Nautical Twilight 5:21 AM CDT 8:48 PM CDT
Astronomical Twilight 4:43 AM CDT 9:26 PM CDT
Moon 6:56 PM CDT (8/30) 5:28 AM CDT (8/30)
Length of Visible Light 14h 16m
Length of Day
13h 16m
Waxing Gibbous, 99% of the Moon is Illuminated
Aug 30
Waxing Gibbous
Aug 31
Full
Sep 8
Last Quarter
Sep 15
New
Sep 22
First Quarter

Hourly Weather History & Observations

Time (CDT) Temp. Heat Index Dew Point Humidity Pressure Visibility Wind Dir Wind Speed Gust Speed Precip Events Conditions
12:53 AM 78.1 °F - 64.9 °F 64% 29.86 in 10.0 mi SSE 11.5 mph - N/A   Clear
1:53 AM 75.9 °F - 64.0 °F 67% 29.86 in 10.0 mi SSE 10.4 mph - N/A   Clear
2:53 AM 75.0 °F - 64.0 °F 69% 29.86 in 10.0 mi SSE 10.4 mph - N/A   Clear
3:53 AM 73.9 °F - 64.0 °F 71% 29.85 in 10.0 mi SSE 15.0 mph - N/A   Clear
4:53 AM 73.0 °F - 64.0 °F 73% 29.84 in 10.0 mi South 19.6 mph - N/A   Clear
5:53 AM 73.9 °F - 62.1 °F 66% 29.83 in 10.0 mi South 20.7 mph - N/A   Clear
6:53 AM 73.9 °F - 61.0 °F 64% 29.83 in 10.0 mi SSW 19.6 mph - N/A   Clear
7:53 AM 75.0 °F - 62.1 °F 64% 29.83 in 10.0 mi South 20.7 mph 28.8 mph N/A   Clear
8:53 AM 79.0 °F - 60.1 °F 52% 29.83 in 10.0 mi South 19.6 mph 32.2 mph N/A   Clear
9:53 AM 82.9 °F 83.2 °F 60.1 °F 46% 29.83 in 10.0 mi South 18.4 mph 27.6 mph N/A   Clear
10:53 AM 86.0 °F 86.1 °F 61.0 °F 43% 29.84 in 10.0 mi South 17.3 mph 25.3 mph N/A   Clear
11:53 AM 90.0 °F 90.0 °F 61.0 °F 38% 29.81 in 10.0 mi SSW 18.4 mph 26.5 mph N/A   Clear
12:53 PM 91.9 °F 91.5 °F 60.1 °F 34% 29.80 in 10.0 mi South 19.6 mph 34.5 mph N/A   Clear
1:53 PM 93.9 °F 94.0 °F 61.0 °F 33% 29.79 in 10.0 mi South 16.1 mph 26.5 mph N/A   Clear
2:53 PM 96.1 °F 96.0 °F 60.1 °F 30% 29.76 in 10.0 mi SSW 18.4 mph 29.9 mph N/A   Clear
3:53 PM 96.1 °F 95.6 °F 59.0 °F 29% 29.75 in 10.0 mi South 21.9 mph 27.6 mph N/A   Clear
4:53 PM 96.1 °F 96.0 °F 60.1 °F 30% 29.76 in 10.0 mi SSW 13.8 mph 27.6 mph N/A   Clear
5:53 PM 95.0 °F 94.8 °F 60.1 °F 31% 29.77 in 10.0 mi South 9.2 mph - N/A   Clear
6:53 PM 91.0 °F 90.9 °F 61.0 °F 36% 29.79 in 10.0 mi SSE 5.8 mph - N/A   Clear
7:53 PM 87.1 °F 87.0 °F 61.0 °F 41% 29.80 in 10.0 mi South 10.4 mph - N/A   Clear
8:53 PM 84.9 °F 85.4 °F 62.1 °F 46% 29.81 in 10.0 mi South 13.8 mph - N/A   Clear
9:53 PM 82.9 °F 84.0 °F 63.0 °F 51% 29.82 in 10.0 mi South 10.4 mph - N/A   Clear
10:53 PM 82.0 °F 83.0 °F 62.1 °F 51% 29.84 in 10.0 mi South 8.1 mph - N/A   Clear
11:53 PM 81.0 °F 81.7 °F 61.0 °F 50% 29.85 in 10.0 mi South 13.8 mph - N/A   Clear